This is the latest recevied weather packets stored in our database for station/object WC4PEM-13. If no packets are shown the sender has not sent any weather packets the latest 10 day(s).
| Time | Temp. | Humidity | Pressure | Rain* | Wind** | Luminosity | Snow |
|---|---|---|---|---|---|---|---|
| 1778091446 | 33.89° C | 44% | 1016.1 hPa | 0 mm | - | - | - |
| 1778091146 | 33.89° C | 45% | 1016 hPa | 0 mm | - | - | - |
| 1778090846 | 33.33° C | 46% | 1016.2 hPa | 0 mm | - | - | - |
| 1778090546 | 33.33° C | 47% | 1016.3 hPa | 0 mm | - | - | - |
| 1778090246 | 33.33° C | 47% | 1016.3 hPa | 0 mm | - | - | - |
| 1778089946 | 32.78° C | 46% | 1016.3 hPa | 0 mm | - | - | - |
| 1778089646 | 32.78° C | 48% | 1016.4 hPa | 0 mm | - | - | - |
| 1778089346 | 32.22° C | 48% | 1016.4 hPa | 0 mm | - | - | - |
| 1778089046 | 32.22° C | 51% | 1016.6 hPa | 0 mm | - | - | - |
| 1778088746 | 32.22° C | 52% | 1016.6 hPa | 0 mm | - | - | - |
| 1778088446 | 31.67° C | 53% | 1016.5 hPa | 0 mm | - | - | - |
| 1778088146 | 31.67° C | 52% | 1016.7 hPa | 0 mm | - | - | - |
| 1778087846 | 31.67° C | 53% | 1016.6 hPa | 0 mm | - | - | - |
| 1778087546 | 31.67° C | 53% | 1016.6 hPa | 0 mm | - | - | - |
| 1778087246 | 31.67° C | 53% | 1016.6 hPa | 0 mm | - | - | - |
| 1778086946 | 31.67° C | 55% | 1016.7 hPa | 0 mm | - | - | - |
| 1778086646 | 31.67° C | 52% | 1016.7 hPa | 0 mm | - | - | - |
| 1778086346 | 31.67° C | 53% | 1016.8 hPa | 0 mm | - | - | - |
| 1778086046 | 31.67° C | 52% | 1016.8 hPa | 0 mm | - | - | - |
| 1778085746 | 31.67° C | 54% | 1016.8 hPa | 0 mm | - | - | - |
| 1778085446 | 31.67° C | 54% | 1016.8 hPa | 0 mm | - | - | - |
| 1778085146 | 31.67° C | 55% | 1016.9 hPa | 0 mm | - | - | - |
| 1778084846 | 31.11° C | 57% | 1016.8 hPa | 0 mm | - | - | - |
| 1778084546 | 31.11° C | 57% | 1016.7 hPa | 0 mm | - | - | - |
| 1778084246 | 31.11° C | 56% | 1016.8 hPa | 0 mm | - | - | - |
* Rain latest hour (hover to see other rain measurements)
** Current wind speed in m/s (hover to see current wind gust speed)